Theta_e
290 284 280 283 283 285 283 281 280 283 287 284 284 286 288 292 293 293 294 296 298 300 315 324 326 327 327 325 325 320 324 323 326 323 322 321 320 323 322 321 322 322 324 323
283 279 286 288 288 285 283 281 281 284 287 287 285 285 289 292 292 294 295 295 298 301 308 318 324 326 326 325 325 321 322 324 324 324 321 321 320 320 322 323 323 323 323 323
279 284 289 287 285 284 282 281 281 281 285 287 285 283 287 292 293 295 296 296 298 300 306 316 321 324 325 325 326 326 321 322 325 324 324 323 323 322 321 322 323 324 325 325
283 288 287 284 283 285 280 287 286 285 281 275 286 274 286 288 291 292 294 295 296 299 307 317 321 322 324 326 328 328 326 324 325 326 325 324 322 321 323 324 327 328 329 328
281 284 284 284 284 287 283 289 288 286 282 283 283 279 282 291 286 288 292 294 296 298 310 313 319 322 325 326 326 328 328 327 326 328 327 325 324 325 326 327 327 327 328 329
283 291 286 286 288 287 290 288 285 284 283 275 283 280 282 285 286 287 289 289 293 296 300 307 311 316 317 320 322 324 326 327 328 328 327 327 325 325 325 325 325 323 323 325
280 283 287 289 285 288 287 283 272 273 273 274 281 282 282 288 291 290 289 290 292 295 296 300 303 307 311 317 319 323 324 325 328 328 326 321 319 318 320 319 318 318 319 322
276 272 283 288 285 283 283 282 276 267 270 276 283 278 282 288 291 294 294 294 294 293 296 299 302 305 306 311 315 322 323 325 326 324 320 318 317 317 318 319 319 318 319 320
278 274 285 287 288 286 282 280 284 279 272 275 278 282 287 288 288 291 291 293 292 294 295 298 300 301 303 306 308 314 319 318 318 318 317 314 313 314 315 315 315 315 317 318
284 278 282 286 287 287 284 287 277 277 267 266 276 276 278 282 284 288 288 288 290 292 293 294 296 297 298 300 305 310 313 315 312 314 315 311 311 312 312 313 313 313 314 314
288 284 279 282 281 281 282 281 283 282 279 274 272 276 281 282 285 286 286 288 288 289 290 291 293 294 296 298 300 303 305 306 305 306 305 305 306 306 306 305 304 304 305 308
285 283 275 278 284 286 285 283 284 277 276 278 278 276 285 285 287 288 286 287 288 289 289 290 291 293 293 295 299 300 303 302 301 302 301 300 300 300 300 299 299 300 299 300
284 281 272 273 278 282 281 284 285 284 284 278 275 276 287 286 286 287 286 287 288 288 289 290 291 291 291 293 297 298 298 297 298 298 298 297 297 297 297 296 296 297 297 297
286 280 278 271 276 279 279 282 283 282 276 277 279 279 284 285 284 287 286 286 287 288 289 289 290 290 291 294 295 295 295 296 296 296 295 294 294 294 294 294 294 294 294 294
281 267 277 279 279 279 281 280 280 281 282 279 279 279 283 284 283 285 286 288 289 289 289 289 289 289 291 292 292 294 294 294 294 293 292 291 292 292 292 292 292 292 292 292
280 267 271 268 279 278 278 280 280 280 278 278 279 280 284 286 286 285 287 288 289 289 290 290 291 291 291 291 291 291 291 291 292 291 290 291 291 290 290 290 290 290 290 290
274 265 268 260 274 275 272 276 279 279 279 278 275 280 284 283 285 285 287 287 289 289 290 291 291 291 291 291 291 290 289 290 290 289 289 289 289 288 288 289 289 288 288 288
276 276 264 262 264 261 277 279 280 278 279 282 282 283 284 284 284 285 287 290 290 291 292 291 291 291 291 291 290 290 289 289 288 287 287 287 287 287 287 287 287 286 286 286
283 276 267 268 266 269 277 280 278 279 277 284 282 283 283 285 284 284 285 288 289 289 290 291 290 289 290 290 291 290 289 288 287 286 286 286 286 286 286 286 285 285 285 284
283 282 268 258 260 258 275 280 281 281 273 283 285 283 281 286 279 280 284 285 286 288 287 287 288 288 287 287 289 288 287 286 285 285 285 284 285 285 285 284 284 284 284 284
272 274 272 267 258 267 278 280 281 269 274 283 286 284 285 281 282 284 286 285 286 286 287 287 286 284 284 285 286 285 285 284 284 284 284 283 283 283 283 283 283 283 283 283
271 266 263 262 266 264 280 280 277 280 282 284 286 287 287 288 288 287 287 286 285 284 284 285 284 282 282 282 283 282 281 282 282 282 281 280 279 281 282 279 281 280 281 279
271 274 271 273 272 281 283 282 283 283 282 284 284 286 287 286 286 287 286 285 284 283 282 283 283 281 279 279 279 279 277 278 278 277 275 275 276 279 279 278 279 277 278 276
277 280 276 277 279 281 283 284 284 284 283 283 285 286 286 286 285 284 284 284 283 282 281 280 279 278 275 275 274 273 273 273 273 271 273 275 274 276 275 277 278 276 275 275
277 278 277 275 279 280 282 282 284 285 284 283 283 284 285 284 284 283 283 282 281 280 279 276 275 274 272 271 270 267 267 267 270 271 272 272 274 272 274 275 275 277 277 277
278 277 276 275 281 280 281 283 285 285 284 283 282 281 282 283 282 282 281 279 277 276 274 273 271 270 268 266 265 263 262 263 264 268 269 269 270 270 272 271 273 280 283 284
Wind_Speed
3 5 3 7 4 5 7 8 11 14 12 8 15 21 20 18 19 16 16 16 10 9 12 16 18 16 13 8 8 11 12 8 9 4 5 3 4 4 4 4 7 7 7 7
7 0 4 7 6 5 7 12 16 12 6 13 15 19 23 18 17 18 17 17 14 12 13 11 15 16 16 17 10 11 14 12 9 7 3 3 4 2 3 4 5 7 7 7
2 3 5 5 6 6 5 8 10 14 16 10 10 12 7 11 10 15 16 14 11 14 17 13 15 16 15 20 15 12 15 15 12 11 6 3 3 2 3 4 4 6 9 9
2 4 5 6 4 4 8 4 10 13 8 4 5 9 4 10 13 8 9 8 8 10 11 13 15 12 13 13 18 20 11 13 12 13 9 10 6 6 4 5 5 7 8 8
3 6 7 3 2 2 8 11 13 12 11 10 4 4 7 16 14 17 8 3 4 7 7 9 14 16 14 12 11 11 18 15 8 8 11 8 5 4 3 3 5 7 6 8
4 4 3 3 6 4 9 9 4 3 4 3 2 5 4 8 11 15 8 10 8 8 8 6 4 6 5 6 5 4 8 11 14 8 8 10 11 9 5 5 5 2 2 2
5 3 2 2 5 2 4 5 4 4 4 5 8 1 0 9 14 8 11 10 10 9 9 9 8 6 5 4 5 6 7 9 12 13 5 11 12 16 15 8 6 6 3 3
6 8 4 2 1 3 4 3 2 5 3 6 8 9 3 6 1 10 11 7 9 11 9 9 9 6 6 5 3 7 7 7 4 10 15 13 10 9 8 9 6 6 4 7
4 6 4 2 2 1 5 2 3 4 1 2 4 3 3 10 10 5 7 13 12 10 10 9 8 7 6 6 8 6 2 8 11 13 14 13 9 9 8 10 6 4 3 1
1 6 2 6 1 3 3 5 4 3 5 5 5 3 7 19 16 10 10 7 9 9 10 9 7 7 7 7 8 10 9 9 12 10 11 10 10 8 6 7 7 5 4 2
1 3 7 3 4 3 4 4 3 2 1 2 4 3 3 7 8 7 7 8 8 8 8 7 6 6 6 7 11 11 10 10 12 10 11 9 8 7 5 7 7 5 6 5
1 2 4 3 5 2 2 2 2 2 4 2 3 6 4 7 6 7 8 8 7 6 7 6 7 7 7 8 11 11 6 11 10 13 9 9 5 9 10 8 8 5 9 8
3 2 4 8 6 5 3 4 3 3 2 1 2 6 7 8 7 6 6 7 7 6 7 7 8 7 7 8 10 11 10 10 10 12 10 10 8 10 9 10 8 8 8 8
3 1 3 5 4 2 6 7 5 2 1 2 4 8 13 16 10 6 5 6 6 6 7 6 7 7 7 8 8 10 11 11 11 10 9 11 9 9 8 9 8 7 6 9
4 2 3 7 10 3 5 10 7 2 2 3 5 6 7 14 12 3 3 5 6 7 7 7 7 7 7 9 9 11 11 8 8 10 10 9 8 8 9 9 7 7 9 8
2 2 3 6 4 5 4 6 6 6 6 4 7 5 12 16 7 8 5 5 6 6 6 7 7 7 7 7 8 8 7 7 8 10 9 8 9 8 7 7 6 8 8 7
4 3 3 6 6 6 2 4 3 3 2 3 4 6 12 7 11 12 11 4 6 6 7 7 7 6 6 6 6 7 6 6 8 8 7 7 6 7 6 6 6 6 6 5
4 1 2 5 6 4 5 2 1 8 1 5 5 7 10 1 3 11 14 9 10 7 8 8 7 7 7 5 7 7 7 7 7 7 7 6 6 6 6 6 6 5 4 5
5 3 1 0 2 6 4 2 0 2 1 7 7 10 8 7 3 11 15 13 9 10 10 9 8 7 8 7 6 7 7 6 6 6 6 5 5 5 4 5 5 4 5 5
5 4 5 5 4 4 4 3 1 2 3 3 5 7 8 2 6 4 10 11 12 12 10 10 10 10 11 10 6 8 7 7 7 6 5 5 5 4 4 3 4 2 2 3
2 0 4 3 2 9 8 4 2 6 5 3 3 4 10 11 4 4 6 9 8 8 11 8 9 10 9 9 7 9 7 9 6 5 5 5 5 4 5 4 3 1 2 3
7 7 5 2 3 8 6 1 2 4 4 6 6 6 8 7 6 4 5 6 6 8 9 8 9 9 10 12 9 9 12 10 8 7 6 6 5 4 4 4 3 2 2 3
2 7 5 9 8 5 4 4 3 6 6 7 6 6 7 7 5 3 1 2 4 5 5 5 5 6 8 8 8 5 7 9 8 6 6 4 5 4 3 3 3 3 3 1
4 4 3 3 4 6 7 3 4 6 6 6 5 7 6 6 5 2 1 3 1 2 3 3 4 4 4 5 7 6 7 8 5 4 5 5 4 5 3 2 2 2 2 3
5 5 5 5 6 5 8 7 6 6 5 5 5 7 8 5 6 6 5 4 1 1 2 3 4 5 6 7 7 7 8 7 5 3 3 4 4 5 4 2 2 2 3 3
6 8 5 7 7 5 4 3 6 7 8 9 8 5 5 7 8 6 5 2 1 2 2 3 3 3 4 3 3 5 6 7 7 7 6 6 5 4 3 3 4 4 3 2
Wind_Direction
358 47 325 281 243 256 271 279 281 287 298 282 281 290 292 287 280 277 269 258 248 226 219 202 193 188 174 146 155 184 190 186 178 169 169 163 182 192 191 187 190 189 196 194
18 22 333 287 281 301 296 290 285 288 280 308 285 281 281 261 261 253 247 245 248 245 232 197 187 180 182 164 176 180 189 189 183 182 159 158 155 177 182 188 198 193 193 194
148 283 349 29 347 347 280 263 299 291 314 264 281 274 266 285 260 251 231 226 236 227 220 194 182 183 192 162 175 192 190 185 187 184 161 115 119 119 171 201 202 205 200 201
263 339 1 351 338 359 317 10 328 301 320 310 42 292 322 305 302 288 215 209 217 225 211 188 184 180 181 189 178 169 193 185 181 171 169 189 190 187 193 192 210 211 207 195
261 332 346 344 338 321 263 310 287 287 292 298 304 256 291 348 346 337 311 309 240 275 194 175 181 181 190 185 197 196 169 178 172 176 179 185 196 200 196 183 216 223 224 217
281 282 189 249 295 217 278 294 261 234 282 277 216 175 323 350 328 346 342 1 1 5 15 44 48 116 147 166 152 176 192 187 146 175 186 186 195 210 199 216 229 214 174 132
328 265 259 204 317 269 336 320 332 351 4 268 346 15 269 340 355 338 332 345 354 3 24 35 31 21 41 142 166 158 190 197 166 170 124 85 86 75 62 41 34 18 317 97
18 342 346 2 26 290 312 336 17 299 335 321 357 347 314 9 20 325 343 348 359 8 8 28 27 6 10 11 10 166 206 202 178 117 106 103 86 78 78 86 68 53 14 21
351 287 317 210 269 264 320 25 234 263 74 334 291 323 198 355 353 21 353 6 0 1 1 15 26 21 359 17 15 8 108 110 105 112 106 99 100 103 99 91 91 91 48 50
19 297 267 294 309 256 240 323 14 360 6 340 315 20 340 341 351 358 349 358 351 354 6 9 19 27 18 28 45 40 49 97 101 102 104 112 119 110 143 137 125 122 92 356
320 230 296 10 9 304 344 359 336 243 38 325 324 293 326 298 318 345 354 357 1 3 0 3 20 27 35 47 55 51 60 83 90 89 82 85 98 120 102 82 80 99 86 76
122 259 282 265 290 298 254 324 6 2 336 291 277 274 345 338 347 356 358 3 7 16 8 10 22 30 38 52 66 59 72 83 81 87 89 83 83 90 82 74 69 61 76 62
316 291 333 345 352 359 2 316 328 261 247 295 327 287 335 344 354 349 17 18 14 21 22 25 30 29 34 46 68 66 53 59 68 73 73 69 64 65 71 72 65 58 68 66
74 264 217 206 222 88 294 309 306 260 288 280 237 297 338 342 335 356 20 42 37 28 33 34 36 33 28 44 72 84 72 60 64 71 79 76 65 67 67 70 65 69 71 76
89 149 325 278 274 231 264 294 308 276 276 261 311 321 339 328 310 1 355 68 58 39 41 40 45 38 35 44 47 66 70 68 88 92 82 77 74 71 68 62 54 56 58 58
49 258 54 302 350 15 274 347 357 35 349 344 316 300 350 325 352 13 9 70 78 70 47 49 45 52 49 50 51 57 61 60 79 82 79 72 71 67 64 67 61 58 52 48
104 95 50 277 342 334 57 308 32 115 12 301 7 303 320 339 18 9 343 18 79 69 65 48 41 41 46 56 65 69 64 57 63 69 61 64 74 84 77 77 78 80 82 84
132 125 100 264 3 38 246 339 120 132 130 9 308 316 321 313 78 25 10 16 62 53 61 47 40 40 34 50 60 66 57 55 58 57 57 50 53 74 77 75 75 69 64 61
202 122 127 42 274 289 324 278 290 221 302 359 336 329 317 290 287 18 8 10 31 58 52 51 47 39 35 38 50 69 64 61 59 54 51 46 59 70 83 81 80 69 74 68
172 119 113 40 119 205 243 289 356 128 305 350 12 349 338 355 68 345 352 10 18 47 50 44 35 42 33 8 37 61 48 50 38 24 22 23 23 30 60 82 76 50 70 105
78 42 207 207 223 284 252 265 161 75 244 112 95 31 49 64 64 11 6 29 26 39 43 53 55 56 30 9 22 51 45 33 356 3 10 16 16 17 11 5 12 73 134 121
170 146 201 84 206 281 210 289 210 186 143 144 146 134 102 90 71 58 18 18 35 43 32 23 44 32 19 19 20 30 30 353 354 1 12 8 3 359 7 5 322 294 138 105
238 184 178 179 214 235 227 203 167 165 156 189 183 190 165 152 164 200 312 360 16 37 39 28 46 66 36 21 15 26 2 351 347 3 3 354 345 347 346 350 327 322 344 142
234 172 184 95 259 231 232 237 191 182 190 189 202 198 186 183 193 311 259 186 169 36 46 36 52 57 44 16 27 17 353 339 335 351 349 338 348 328 326 336 344 356 323 323
200 131 185 261 278 299 269 231 205 199 205 178 184 186 204 183 187 194 201 203 195 55 35 24 32 28 13 4 18 8 350 331 318 295 331 357 352 353 334 318 253 252 240 193
186 185 169 226 203 184 215 201 175 178 202 206 186 191 193 187 188 174 183 148 114 99 27 24 28 22 4 342 343 349 352 359 3 1 5 354 342 336 332 328 322 309 297 293